Starlink 5201

operational
NORAD ID: 54076 Int'l Des: 2022-136 Owner: SPXS Country: US Constellation: starlink
LEOCIRCULAR

Starlink 5201について

説明を読み込み中...

リアルタイム位置

3D地球を読み込み中...

次回通過

高度履歴

Altitude vs Time

uPlot chart will show altitude changes over time

軌道要素

1 54076U 22136AB 25307.65299794 .00000780 00000-0 67087-4 0 9991
2 54076 53.2155 190.1241 0001322 82.1736 277.9406 15.08828228167810
Epoch: Nov 3, 2025 • Age: 20 hours

現在のステータス

高度 544.3 km
速度 7.60 km/s
衛星直下点 47.97°N, 98.26°E
打ち上げ日 Oct 20, 2022
運用期間 3 years
タイプ internet

技術仕様

分類 Payload
質量 305.00 kg
乾燥質量 290.00 kg
総質量 305.00 kg
長さ 0.20 m
直径 2.80 m
スパン 9.00 m
形状 Box + pan
製造者 SPXS
バスタイプ Starlink
フェーズステータス In Orbit
所有者/国 SPXS/US

大規模コンステレーション

Loading constellations...